WT9M-8 Weather Reports


Display with metric or nautical units.
time (UTC)temp
F
wind
direction
speed
MPH
gust
MPH
rain 1hr
in
rain 24hr
in
rain mn
in
humidity
%
barometer
mb
20260902203021 89 173 3.0 9.0 0.00 0.00 0.00 71 1011.9
20260902202019 88 225 5.0 10.0 0.00 0.00 0.00 72 1012.0
20260902201034 88 196 3.0 6.0 0.00 0.00 0.00 73 1012.0
20260902200030 88 214 3.0 6.0 0.00 0.00 0.00 74 1012.0
20260902195027 88 203 3.0 7.0 0.00 0.00 0.00 75 1012.1
20260902194023 87 173 2.0 4.0 0.00 0.00 0.00 76 1012.4
20260902193019 87 207 4.0 7.0 0.00 0.00 0.00 76 1012.4
20260902192056 86 202 3.0 6.0 0.00 0.00 0.00 77 1012.6
20260902191052 85 213 1.0 6.0 0.00 0.00 0.00 77 1012.6
20260902190029 85 202 4.0 7.0 0.00 0.00 0.00 76 1012.9
20260902185025 86 216 3.0 7.0 0.00 0.00 0.00 77 1012.8
20260902184022 86 238 3.0 7.0 0.00 0.00 0.00 77 1012.6
20260902183018 86 206 4.0 9.0 0.00 0.00 0.00 77 1012.7
20260902182035 86 205 3.0 6.0 0.00 0.00 0.00 77 1012.5
20260902181031 86 205 2.0 4.0 0.00 0.00 0.00 78 1012.4
20260902180026 86 228 3.0 6.0 0.00 0.00 0.00 78 1012.6
20260902175023 86 191 2.0 6.0 0.00 0.00 0.00 78 1012.8
20260902174019 87 203 3.0 7.0 0.00 0.00 0.00 79 1012.8
20260902173136 87 217 3.0 8.0 0.00 0.00 0.00 79 1012.9
20260902172034 87 218 3.0 7.0 0.00 0.00 0.00 80 1012.9
20260902171050 86 152 1.0 2.0 0.00 0.00 0.00 81 1013.1
20260902170026 85 150 2.0 6.0 0.00 0.00 0.00 82 1013.1
20260902165022 84 202 1.0 4.0 0.00 0.00 0.00 82 1013.0
20260902164039 84 169 1.0 3.0 0.00 0.00 0.00 83 1013.3
20260902163156 84 202 3.0 4.0 0.00 0.00 0.00 84 1013.4
20260902162031 83 217 2.0 6.0 0.00 0.00 0.00 84 1013.3
20260902161028 82 216 2.0 6.0 0.00 0.00 0.00 85 1013.3
20260902160044 82 198 2.0 4.0 0.00 0.00 0.00 85 1013.2
20260902155021 81 72 3.0 8.0 0.00 0.00 0.00 85 1013.2
20260902154037 80 49 1.0 6.0 0.00 0.00 0.00 88 1013.2
20260902153053 78 97 1.0 2.0 0.00 0.00 0.00 88 1013.2
20260902152030 79 82 2.0 3.0 0.00 0.00 0.00 88 1013.1
20260902151036 79 212 0.0 2.0 0.00 0.00 0.00 88 1013.5
20260902150032 78 190 1.0 3.0 0.00 0.00 0.00 89 1013.4
20260902145028 77 91 1.0 6.0 0.00 0.00 0.00 89 1013.1
20260902144023 77 106 2.0 7.0 0.00 0.00 0.00 90 1013.3
20260902143032 75 70 2.0 6.0 0.00 0.00 0.00 90 1013.4
20260902142021 74 90 1.0 2.0 0.00 0.00 0.00 91 1013.7
20260902141033 73 18 1.0 3.0 0.00 0.00 0.00 91 1013.9
20260902140025 71 320 1.0 2.0 0.00 0.00 0.00 91 1013.9
20260902135017 71 95 1.0 3.0 0.00 0.00 0.00 91 1013.9
20260902134033 70 0.0 0.0 0.00 0.00 0.00 91 1013.9
20260902133029 69 0.0 0.0 0.00 0.00 0.00 91 1013.9
20260902132025 69 0.0 0.0 0.00 0.00 0.00 91 1014.0
20260902131020 68 0.0 0.0 0.00 0.00 0.00 91 1013.9
20260902130034 68 0.0 0.0 0.00 0.00 0.00 92 1013.9
20260902125030 68 0.0 0.0 0.00 0.00 0.00 92 1014.2
20260902124025 67 0.0 0.0 0.00 0.00 0.00 92 1013.9
20260902123021 67 31 2.0 6.0 0.00 0.00 0.00 92 1013.7
20260902122038 67 298 2.0 3.0 0.00 0.00 0.00 92 1013.3
20260902121034 67 339 0.0 2.0 0.00 0.00 0.00 92 1013.7
20260902120031 67 87 2.0 6.0 0.00 0.00 0.00 92 1013.8
20260902115048 67 154 1.0 2.0 0.00 0.00 0.00 91 1014.8
20260902114044 67 127 1.0 4.0 0.00 0.00 0.00 91 1014.8
20260902113021 67 126 1.0 2.0 0.00 0.00 0.00 91 1014.7
20260902112018 66 135 0.0 1.0 0.00 0.00 0.00 91 1014.4
20260902111034 66 0.0 0.0 0.00 0.00 0.00 91 1013.9
20260902110051 67 0.0 0.0 0.00 0.00 0.00 91 1013.3
20260902105027 67 0.0 0.0 0.00 0.00 0.00 91 1013.3
20260902104024 67 0.0 0.0 0.00 0.00 0.00 91 1013.1
20260902103040 67 112 0.0 1.0 0.00 0.00 0.00 91 1013.3
20260902102017 68 9 0.0 1.0 0.00 0.00 0.00 91 1013.1
20260902101034 68 0.0 0.0 0.00 0.00 0.00 91 1013.1
20260902100030 68 40 1.0 2.0 0.00 0.00 0.00 91 1013.3
20260902095027 68 97 1.0 4.0 0.00 0.00 0.00 91 1013.5
20260902094044 68 282 1.0 3.0 0.00 0.00 0.00 91 1013.4
20260902093021 68 112 0.0 2.0 0.00 0.00 0.00 91 1013.5
20260902092018 69 0.0 0.0 0.00 0.00 0.00 91 1013.7
20260902091032 69 150 0.0 1.0 0.00 0.00 0.00 91 1013.9
20260902090031 69 121 0.0 1.0 0.00 0.00 0.00 91 1014.2
20260902085026 69 101 1.0 3.0 0.00 0.00 0.00 91 1014.5
20260902084022 70 204 2.0 4.0 0.00 0.01 0.00 91 1014.9
20260902083018 70 285 3.0 9.0 0.00 0.01 0.00 91 1014.9
20260902082035 70 239 4.0 9.0 0.00 0.01 0.00 91 1014.3
20260902081111 70 80 1.0 3.0 0.00 0.01 0.00 91 1012.3
20260902080028 70 0.0 0.0 0.00 0.01 0.00 91 1012.4
20260902075024 70 93 1.0 2.0 0.00 0.01 0.00 91 1012.2
20260902074021 70 81 0.0 2.0 0.00 0.01 0.00 91 1012.3
20260902073017 70 0.0 0.0 0.00 0.01 0.00 91 1012.5
20260902072034 70 0.0 0.0 0.00 0.01 0.00 91 1012.3
20260902071030 70 0.0 0.0 0.00 0.01 0.00 91 1012.4
20260902070028 70 0.0 0.0 0.00 0.01 0.00 91 1012.6
20260902065024 70 0.0 0.0 0.00 0.01 0.00 90 1012.5
20260902064020 71 0.0 0.0 0.00 0.01 0.00 90 1012.5
20260902063017 71 0.0 0.0 0.00 0.01 0.00 90 1012.4
20260902062033 71 0.0 0.0 0.00 0.01 0.00 90 1012.5
20260902061030 72 36 0.0 2.0 0.00 0.01 0.00 90 1012.9
20260902060027 72 5 1.0 2.0 0.00 0.01 0.00 90 1013.0
20260902055045 71 93 1.0 3.0 0.00 0.01 0.00 90 1013.2
20260902054020 71 133 0.0 3.0 0.00 0.01 0.00 90 1013.4
20260902053017 70 0.0 0.0 0.00 0.01 0.00 90 1013.0
20260902052033 70 0.0 0.0 0.00 0.01 0.00 90 1013.0
20260902051030 70 0.0 0.0 0.00 0.01 0.00 90 1012.9
20260902050025 69 167 0.0 1.0 0.00 0.01 0.01 90 1013.0
20260902045042 69 0.0 0.0 0.00 0.01 0.01 89 1012.9
20260902044018 70 0.0 0.0 0.00 0.01 0.01 89 1012.8
20260902043036 70 0.0 0.0 0.00 0.01 0.01 89 1012.8
20260902042031 70 0.0 0.0 0.00 0.01 0.01 89 1012.8
20260902041028 71 0.0 0.0 0.00 0.01 0.01 89 1012.6
20260902040025 71 0.0 0.0 0.00 0.01 0.01 89 1012.7
20260902035020 72 0.0 0.0 0.00 0.01 0.01 89 1012.9
20260902034016 72 0.0 0.0 0.00 0.01 0.01 89 1013.1
20260902033032 72 0.0 0.0 0.00 0.01 0.01 89 1013.0
20260902032029 72 0.0 0.0 0.00 0.01 0.01 89 1013.0
20260902031045 72 0.0 0.0 0.00 0.01 0.01 89 1013.0
20260902030022 72 0.0 0.0 0.00 0.01 0.01 89 1013.3
20260902025019 72 0.0 0.0 0.00 0.01 0.01 88 1013.4
20260902024035 72 0.0 0.0 0.00 0.01 0.01 88 1013.3
20260902023032 72 0.0 0.0 0.00 0.01 0.01 88 1013.4
20260902022028 73 0.0 0.0 0.00 0.01 0.01 88 1013.3
20260902021025 73 0.0 0.0 0.00 0.01 0.01 88 1013.0
20260902020022 73 0.0 0.0 0.00 0.01 0.01 88 1013.0
20260902015018 74 97 0.0 1.0 0.00 0.01 0.01 87 1013.0
20260902014035 75 102 0.0 1.0 0.00 0.01 0.01 87 1012.8
20260902013031 75 97 1.0 2.0 0.00 0.01 0.01 87 1012.7
20260902012028 76 85 2.0 4.0 0.00 0.01 0.01 87 1012.6
20260902011024 76 165 0.0 2.0 0.00 0.01 0.01 87 1012.4
20260902010020 76 253 1.0 1.0 0.00 0.01 0.01 86 1012.1
20260902005017 76 323 1.0 3.0 0.00 0.01 0.01 86 1011.5
20260902004053 76 149 1.0 3.0 0.00 0.01 0.01 86 1011.4
20260902003029 77 63 2.0 3.0 0.00 0.01 0.01 85 1011.6
20260902002045 77 99 3.0 4.0 0.00 0.01 0.01 85 1011.9
20260902001042 78 109 2.0 3.0 0.00 0.01 0.01 84 1012.5
20260902000017 78 88 2.0 3.0 0.00 0.01 0.01 84 1012.7
20260901235033 79 106 2.0 4.0 0.00 0.01 0.01 83 1013.1
20260901234030 80 83 1.0 3.0 0.00 0.01 0.01 83 1013.2
20260901233026 81 83 1.0 2.0 0.00 0.01 0.01 82 1013.2
20260901232023 82 83 0.0 1.0 0.00 0.01 0.01 81 1012.6
20260901231020 82 91 1.0 2.0 0.00 0.01 0.01 81 1012.3
20260901230016 83 92 2.0 3.0 0.00 0.01 0.01 79 1012.5
20260901225034 84 111 1.0 2.0 0.00 0.01 0.01 78 1012.7
20260901224049 86 112 1.0 2.0 0.00 0.01 0.01 77 1012.5
20260901223026 86 112 1.0 1.0 0.00 0.01 0.01 76 1012.4
20260901222042 87 110 1.0 2.0 0.00 0.01 0.01 76 1012.5
20260901221018 88 206 2.0 3.0 0.00 0.01 0.01 76 1012.4
20260901220035 87 199 2.0 4.0 0.00 0.01 0.01 77 1012.4
20260901215032 87 122 0.0 1.0 0.00 0.01 0.01 77 1012.4
20260901214048 88 190 2.0 4.0 0.00 0.01 0.01 76 1012.4
20260901213025 87 215 3.0 6.0 0.00 0.01 0.01 78 1012.5
20260901212021 86 170 1.0 3.0 0.00 0.01 0.01 80 1012.5
20260901211017 85 107 0.0 1.0 0.00 0.01 0.01 78 1012.5
20260901210034 85 81 1.0 2.0 0.00 0.01 0.01 77 1012.0
20260901205031 87 89 1.0 2.0 0.00 0.01 0.01 74 1012.1
20260901204027 88 178 1.0 3.0 0.00 0.01 0.01 73 1012.8